• en Suisse
  • Liste des pays
  • À 7 jours
  • Température de l'eau
  • Carte satellitaire
  • Carte météo
  • Widgets météo
  • user-avatar
    Se connecter

    Météo par heure à Kalgoorlie

    Ce jour, 18 Juin, Lundi

    Heure Température Précipitation Vent Pression Humidité
    00:00 +14°C° 0 mm 7 m/s 732 mmHg 37%
    01:00 +14°C° 0 mm 7 m/s 732 mmHg 37%
    02:00 +14°C° 0 mm 7 m/s 731 mmHg 37%
    03:00 +14°C° 0 mm 7 m/s 731 mmHg 36%
    04:00 +13°C° 0 mm 8 m/s 731 mmHg 36%
    05:00 +13°C° 0 mm 8 m/s 730 mmHg 35%
    06:00 +13°C° 0 mm 9 m/s 730 mmHg 35%
    07:00 +13°C° 0 mm 9 m/s 730 mmHg 34%
    08:00 +14°C° 0 mm 11 m/s 731 mmHg 31%
    09:00 +14°C° 0,7 mm 11 m/s 730 mmHg 40%
    10:00 +13°C° 0,7 mm 11 m/s 730 mmHg 49%
    11:00 +13°C° 0,7 mm 12 m/s 730 mmHg 58%
    12:00 +13°C° 0,5 mm 12 m/s 730 mmHg 59%
    13:00 +14°C° 0,5 mm 12 m/s 730 mmHg 60%
    14:00 +14°C° 0,5 mm 12 m/s 730 mmHg 61%
    15:00 +13°C° 1,1 mm 10 m/s 730 mmHg 67%
    16:00 +13°C° 1,1 mm 9 m/s 730 mmHg 73%
    17:00 +12°C° 1,1 mm 7 m/s 730 mmHg 79%
    18:00 +13°C° 0,8 mm 6 m/s 730 mmHg 79%
    19:00 +13°C° 0,8 mm 5 m/s 731 mmHg 80%
    20:00 +12°C° 0,8 mm 3 m/s 731 mmHg 80%
    21:00 +12°C° 0,1 mm 4 m/s 732 mmHg 78%
    22:00 +12°C° 0,1 mm 4 m/s 732 mmHg 77%
    23:00 +11°C° 0,1 mm 4 m/s 732 mmHg 75%

    Demain, 19 Juin, Mardi

    Heure Température Précipitation Vent Pression Humidité
    00:00 +11°C° 0 mm 4 m/s 733 mmHg 75%
    01:00 +10°C° 0 mm 4 m/s 733 mmHg 75%
    02:00 +8°C° 0 mm 5 m/s 733 mmHg 75%
    03:00 +8°C° 0 mm 4 m/s 733 mmHg 77%
    04:00 +7°C° 0 mm 4 m/s 733 mmHg 79%
    05:00 +7°C° 0 mm 4 m/s 734 mmHg 82%
    06:00 +7°C° 0 mm 4 m/s 734 mmHg 80%
    07:00 +7°C° 0 mm 4 m/s 735 mmHg 78%
    08:00 +7°C° 0 mm 5 m/s 735 mmHg 76%
    09:00 +9°C° 0 mm 5 m/s 735 mmHg 68%
    10:00 +10°C° 0 mm 5 m/s 735 mmHg 60%
    11:00 +13°C° 0 mm 5 m/s 735 mmHg 52%
    12:00 +13°C° 0 mm 5 m/s 735 mmHg 49%
    13:00 +14°C° 0 mm 5 m/s 735 mmHg 47%
    14:00 +15°C° 0 mm 5 m/s 734 mmHg 45%
    15:00 +14°C° 0 mm 4 m/s 734 mmHg 48%
    16:00 +14°C° 0 mm 3 m/s 735 mmHg 51%
    17:00 +14°C° 0 mm 2 m/s 735 mmHg 55%
    18:00 +14°C° 0 mm 2 m/s 735 mmHg 57%
    19:00 +13°C° 0 mm 2 m/s 736 mmHg 60%
    20:00 +13°C° 0 mm 2 m/s 736 mmHg 63%
    21:00 +13°C° 0 mm 2 m/s 736 mmHg 64%
    22:00 +13°C° 0 mm 2 m/s 736 mmHg 65%
    23:00 +12°C° 0 mm 3 m/s 737 mmHg 66%

    Après-demain, 20 Juin, Mercredi

    Heure Température Précipitation Vent Pression Humidité
    00:00 +11°C° 0 mm 3 m/s 737 mmHg 68%
    01:00 +11°C° 0 mm 3 m/s 737 mmHg 69%
    02:00 +11°C° 0 mm 3 m/s 737 mmHg 71%
    03:00 +11°C° 0 mm 3 m/s 736 mmHg 74%
    04:00 +11°C° 0 mm 3 m/s 736 mmHg 76%
    05:00 +10°C° 0 mm 3 m/s 736 mmHg 79%
    06:00 +11°C° 0 mm 3 m/s 737 mmHg 80%
    07:00 +11°C° 0 mm 3 m/s 737 mmHg 80%
    08:00 +11°C° 0 mm 3 m/s 737 mmHg 80%
    09:00 +13°C° 0 mm 3 m/s 737 mmHg 75%
    10:00 +14°C° 0 mm 3 m/s 737 mmHg 70%
    11:00 +16°C° 0 mm 3 m/s 737 mmHg 64%
    12:00 +17°C° 0 mm 3 m/s 737 mmHg 62%
    13:00 +17°C° 0 mm 4 m/s 736 mmHg 60%
    14:00 +17°C° 0 mm 4 m/s 736 mmHg 59%
    15:00 +17°C° 0 mm 3 m/s 736 mmHg 59%
    16:00 +17°C° 0 mm 3 m/s 736 mmHg 60%
    17:00 +16°C° 0 mm 3 m/s 736 mmHg 60%
    18:00 +16°C° 0 mm 2 m/s 736 mmHg 61%
    19:00 +15°C° 0 mm 2 m/s 737 mmHg 62%
    20:00 +15°C° 0 mm 2 m/s 737 mmHg 63%
    21:00 +14°C° 0 mm 2 m/s 737 mmHg 65%
    22:00 +14°C° 0 mm 2 m/s 737 mmHg 67%
    23:00 +13°C° 0 mm 2 m/s 737 mmHg 69%

    21 Juin, Jeudi

    Heure Température Précipitation Vent Pression Humidité
    00:00 +13°C° 0 mm 2 m/s 737 mmHg 70%
    01:00 +12°C° 0 mm 2 m/s 737 mmHg 72%
    02:00 +12°C° 0 mm 2 m/s 737 mmHg 73%
    03:00 +10°C° 0 mm 2 m/s 737 mmHg 74%
    04:00 +10°C° 0 mm 2 m/s 736 mmHg 75%
    05:00 +11°C° 0 mm 1 m/s 736 mmHg 77%
    06:00 +11°C° 0 mm 1 m/s 737 mmHg 75%
    07:00 +12°C° 0 mm 1 m/s 737 mmHg 73%
    08:00 +12°C° 0 mm 1 m/s 738 mmHg 71%
    09:00 +14°C° 0 mm 1 m/s 738 mmHg 65%
    10:00 +15°C° 0 mm 1 m/s 738 mmHg 59%
    11:00 +18°C° 0 mm 1 m/s 738 mmHg 53%
    12:00 +18°C° 0 mm 1 m/s 737 mmHg 51%
    13:00 +19°C° 0 mm 1 m/s 736 mmHg 49%
    14:00 +17°C° 0 mm 0 m/s 735 mmHg 47%
    15:00 +17°C° 0 mm 0 m/s 736 mmHg 49%
    16:00 +17°C° 0 mm 0 m/s 736 mmHg 51%
    17:00 +16°C° 0 mm 0 m/s 736 mmHg 53%
    18:00 +18°C° 0 mm 1 m/s 736 mmHg 54%
    19:00 +18°C° 0 mm 1 m/s 736 mmHg 55%
    20:00 +16°C° 0 mm 1 m/s 737 mmHg 56%
    21:00 +16°C° 0 mm 1 m/s 737 mmHg 57%
    22:00 +16°C° 0 mm 1 m/s 737 mmHg 58%
    23:00 +15°C° 0 mm 2 m/s 737 mmHg 59%

    22 Juin, Vendredi

    Heure Température Précipitation Vent Pression Humidité
    00:00 +15°C° 0 mm 2 m/s 736 mmHg 60%
    01:00 +14°C° 0 mm 2 m/s 736 mmHg 62%
    02:00 +14°C° 0 mm 2 m/s 736 mmHg 63%
    03:00 +13°C° 0 mm 2 m/s 736 mmHg 64%
    04:00 +13°C° 0 mm 2 m/s 736 mmHg 65%
    05:00 +13°C° 0 mm 2 m/s 736 mmHg 66%
    06:00 +13°C° 0 mm 2 m/s 736 mmHg 64%
    07:00 +13°C° 0 mm 2 m/s 737 mmHg 63%
    08:00 +14°C° 0 mm 2 m/s 737 mmHg 62%
    09:00 +15°C° 0 mm 2 m/s 737 mmHg 57%
    10:00 +16°C° 0 mm 2 m/s 737 mmHg 52%
    11:00 +18°C° 0 mm 2 m/s 737 mmHg 47%
    12:00 +18°C° 0 mm 2 m/s 736 mmHg 45%
    13:00 +19°C° 0 mm 2 m/s 736 mmHg 44%
    14:00 +19°C° 0 mm 2 m/s 735 mmHg 42%
    15:00 +18°C° 0 mm 2 m/s 735 mmHg 43%
    16:00 +19°C° 0 mm 1 m/s 735 mmHg 45%
    17:00 +19°C° 0 mm 1 m/s 735 mmHg 47%
    18:00 +18°C° 0 mm 1 m/s 736 mmHg 48%
    19:00 +18°C° 0 mm 1 m/s 736 mmHg 50%
    20:00 +16°C° 0 mm 1 m/s 736 mmHg 51%
    21:00 +16°C° 0 mm 1 m/s 736 mmHg 52%
    22:00 +16°C° 0 mm 1 m/s 736 mmHg 54%
    23:00 +16°C° 0 mm 2 m/s 736 mmHg 55%

    23 Juin, Samedi

    Heure Température Précipitation Vent Pression Humidité
    00:00 +15°C° 0 mm 2 m/s 736 mmHg 57%
    01:00 +15°C° 0 mm 2 m/s 735 mmHg 59%
    02:00 +15°C° 0 mm 2 m/s 735 mmHg 61%
    03:00 +15°C° 0 mm 2 m/s 735 mmHg 63%
    04:00 +14°C° 0 mm 1 m/s 736 mmHg 64%
    05:00 +14°C° 0 mm 1 m/s 736 mmHg 66%
    06:00 +14°C° 0 mm 1 m/s 736 mmHg 67%
    07:00 +14°C° 0 mm 1 m/s 736 mmHg 67%
    08:00 +14°C° 0 mm 1 m/s 736 mmHg 68%
    09:00 +16°C° 0 mm 2 m/s 736 mmHg 63%
    10:00 +17°C° 0 mm 2 m/s 736 mmHg 57%
    11:00 +18°C° 0 mm 2 m/s 736 mmHg 52%
    12:00 +19°C° 0 mm 3 m/s 736 mmHg 49%
    13:00 +19°C° 0 mm 3 m/s 735 mmHg 47%
    14:00 +20°C° 0 mm 4 m/s 735 mmHg 45%
    15:00 +19°C° 0 mm 3 m/s 735 mmHg 47%
    16:00 +19°C° 0 mm 3 m/s 735 mmHg 48%
    17:00 +18°C° 0 mm 3 m/s 735 mmHg 50%
    18:00 +17°C° 0 mm 3 m/s 736 mmHg 53%
    19:00 +16°C° 0 mm 3 m/s 736 mmHg 57%
    20:00 +16°C° 0 mm 3 m/s 736 mmHg 60%
    21:00 +14°C° 0 mm 3 m/s 736 mmHg 62%
    22:00 +14°C° 0 mm 2 m/s 736 mmHg 65%
    23:00 +14°C° 0 mm 2 m/s 736 mmHg 68%
    Voir plus